W8VMX Weather Reports


Display with metric or nautical units.
time (UTC)temp
F
wind
direction
speed
MPH
gust
MPH
rain 1hr
in
rain 24hr
in
rain mn
in
humidity
%
barometer
mb
20260902203524 96 196 0.0 6.0 0.00 0.00 0.00 57 1017.8
20260902203045 95 0 0.0 7.0 0.00 0.00 0.00 57 1017.8
20260902202524 96 172 2.0 7.0 0.00 0.00 0.00 57 1017.9
20260902202023 95 0 2.0 9.0 0.00 0.00 0.00 56 1017.8
20260902201603 95 151 2.0 9.0 0.00 0.00 0.00 57 1017.9
20260902201023 95 0 1.0 4.0 0.00 0.00 0.00 58 1017.9
20260902200527 95 161 0.0 7.0 0.00 0.00 0.00 56 1017.8
20260902200110 95 224 2.0 7.0 0.00 0.00 0.00 56 1017.9
20260902195524 95 109 2.0 8.0 0.00 0.00 0.00 55 1018.0
20260902195025 95 334 1.0 8.0 0.00 0.00 0.00 56 1018.0
20260902194543 95 270 3.0 8.0 0.00 0.00 0.00 55 1018.0
20260902194024 95 0 1.0 6.0 0.00 0.00 0.00 56 1018.1
20260902193527 95 179 2.0 7.0 0.00 0.00 0.00 56 1018.2
20260902193050 95 0 1.0 7.0 0.00 0.00 0.00 57 1018.2
20260902192524 95 145 1.0 7.0 0.00 0.00 0.00 57 1018.4
20260902192024 94 0 1.0 7.0 0.00 0.00 0.00 56 1018.4
20260902191550 94 227 1.0 5.0 0.00 0.00 0.00 58 1018.5
20260902191024 94 194 1.0 5.0 0.00 0.00 0.00 57 1018.5
20260902190525 94 217 1.0 5.0 0.00 0.00 0.00 58 1018.6
20260902190058 94 150 1.0 8.0 0.00 0.00 0.00 58 1018.7
20260902185523 94 0 1.0 8.0 0.00 0.00 0.00 58 1018.6
20260902185026 94 212 3.0 8.0 0.00 0.00 0.00 57 1018.7
20260902184548 94 259 2.0 8.0 0.00 0.00 0.00 58 1018.8
20260902184025 93 235 0.0 8.0 0.00 0.00 0.00 59 1018.7
20260902183525 93 0 2.0 8.0 0.00 0.00 0.00 57 1018.7
20260902183052 94 272 1.0 4.0 0.00 0.00 0.00 57 1018.8
20260902182527 94 0 0.0 5.0 0.00 0.00 0.00 57 1018.8
20260902182024 94 69 0.0 6.0 0.00 0.00 0.00 57 1018.9
20260902181544 94 0 0.0 6.0 0.00 0.00 0.00 57 1018.9
20260902181023 94 244 1.0 6.0 0.00 0.00 0.00 57 1018.8
20260902180523 94 194 1.0 8.0 0.00 0.00 0.00 58 1018.9
20260902180044 94 175 1.0 8.0 0.00 0.00 0.00 59 1018.9
20260902175524 94 0 1.0 4.0 0.00 0.00 0.00 59 1018.9
20260902175026 93 222 0.0 4.0 0.00 0.00 0.00 60 1018.9
20260902174549 93 0 0.0 5.0 0.00 0.00 0.00 62 1019.1
20260902174027 92 341 0.0 6.0 0.00 0.00 0.00 61 1019.2
20260902173524 92 0 1.0 6.0 0.00 0.00 0.00 60 1019.2
20260902173045 92 200 1.0 9.0 0.00 0.00 0.00 60 1019.3
20260902172523 92 240 1.0 9.0 0.00 0.00 0.00 63 1019.3
20260902172028 92 0 0.0 7.0 0.00 0.00 0.00 65 1019.3
20260902171548 91 229 1.0 7.0 0.00 0.00 0.00 67 1019.4
20260902171028 91 139 2.0 10.0 0.00 0.00 0.00 66 1019.4
20260902170527 91 163 3.0 10.0 0.00 0.00 0.00 65 1019.4
20260902170051 91 242 2.0 10.0 0.00 0.00 0.00 65 1019.5
20260902165524 91 0 1.0 4.0 0.00 0.00 0.00 68 1019.6
20260902165028 91 141 1.0 7.0 0.00 0.00 0.00 67 1019.7
20260902164548 90 171 2.0 7.0 0.00 0.00 0.00 67 1019.7
20260902164024 90 0 1.0 6.0 0.00 0.00 0.00 68 1019.6
20260902163522 90 0 2.0 6.0 0.00 0.00 0.00 67 1019.6
20260902163044 90 152 2.0 6.0 0.00 0.00 0.00 67 1019.7
20260902162524 89 0 1.0 5.0 0.00 0.00 0.00 71 1019.7
20260902162027 89 306 2.0 5.0 0.00 0.00 0.00 69 1019.7
20260902161553 89 0 2.0 7.0 0.00 0.00 0.00 69 1019.8
20260902161025 89 232 1.0 7.0 0.00 0.00 0.00 69 1019.8
20260902160528 88 252 2.0 7.0 0.00 0.00 0.00 69 1019.8
20260902160044 88 0 4.0 7.0 0.00 0.00 0.00 69 1019.9
20260902155525 88 202 1.0 4.0 0.00 0.00 0.00 70 1019.9
20260902155025 87 192 0.0 5.0 0.00 0.00 0.00 71 1019.9
20260902154547 87 289 1.0 8.0 0.00 0.00 0.00 71 1019.9
20260902154024 87 0 2.0 8.0 0.00 0.00 0.00 72 1020.0
20260902153528 87 279 1.0 8.0 0.00 0.00 0.00 73 1020.0
20260902153050 86 169 2.0 8.0 0.00 0.00 0.00 72 1020.1
20260902152528 86 195 2.0 8.0 0.00 0.00 0.00 73 1020.2
20260902152023 86 340 1.0 5.0 0.00 0.00 0.00 74 1020.2
20260902151548 86 219 1.0 6.0 0.00 0.00 0.00 74 1020.1
20260902151027 85 220 1.0 8.0 0.00 0.00 0.00 75 1020.2
20260902150524 85 232 2.0 8.0 0.00 0.00 0.00 74 1020.2
20260902150048 85 263 1.0 6.0 0.00 0.00 0.00 76 1020.3
20260902145524 85 159 2.0 6.0 0.00 0.00 0.00 75 1020.3
20260902145032 84 188 1.0 3.0 0.00 0.00 0.00 76 1020.3
20260902144544 84 199 1.0 4.0 0.00 0.00 0.00 77 1020.3
20260902144024 84 255 1.0 4.0 0.00 0.00 0.00 77 1020.3
20260902143523 83 223 0.0 5.0 0.00 0.00 0.00 78 1020.2
20260902143048 83 180 1.0 5.0 0.00 0.00 0.00 78 1020.3
20260902142525 83 200 1.0 5.0 0.00 0.00 0.00 78 1020.2
20260902142023 82 147 1.0 5.0 0.00 0.00 0.00 79 1020.2
20260902141544 82 0 1.0 4.0 0.00 0.00 0.00 79 1020.1
20260902141024 82 241 1.0 6.0 0.00 0.00 0.00 79 1020.2
20260902140524 82 180 2.0 6.0 0.00 0.00 0.00 80 1020.2
20260902140046 81 215 1.0 5.0 0.00 0.00 0.00 80 1020.2
20260902135524 81 0 2.0 5.0 0.00 0.00 0.00 80 1020.2
20260902135025 81 178 0.0 3.0 0.00 0.00 0.00 81 1020.2
20260902134545 81 244 0.0 4.0 0.00 0.00 0.00 82 1020.1
20260902134024 81 262 0.0 6.0 0.00 0.00 0.00 82 1020.1
20260902133526 80 0 2.0 8.0 0.00 0.00 0.00 82 1020.2
20260902133047 80 184 1.0 8.0 0.00 0.00 0.00 83 1020.2
20260902132524 79 207 1.0 6.0 0.00 0.00 0.00 83 1020.2
20260902132024 79 221 1.0 5.0 0.00 0.00 0.00 84 1020.0
20260902131543 79 192 1.0 5.0 0.00 0.00 0.00 85 1020.1
20260902131025 78 0 1.0 4.0 0.00 0.00 0.00 86 1020.1
20260902130524 78 0 1.0 3.0 0.00 0.00 0.00 87 1020.1
20260902130048 77 211 0.0 3.0 0.00 0.00 0.00 88 1020.1
20260902125525 77 0 0.0 3.0 0.00 0.00 0.00 89 1020.0
20260902125025 76 208 0.0 2.0 0.00 0.00 0.00 91 1020.1
20260902124557 75 200 1.0 2.0 0.00 0.00 0.00 93 1020.0
20260902124023 74 0 0.0 2.0 0.00 0.00 0.00 95 1019.9
20260902123523 74 214 0.0 2.0 0.00 0.00 0.00 96 1020.0
20260902123050 73 0 0.0 0.0 0.00 0.00 0.00 98 1019.9
20260902122525 73 0 0.0 0.0 0.00 0.00 0.00 98 1019.9
20260902122025 72 0 0.0 0.0 0.00 0.00 0.00 98 1019.9
20260902121541 72 0 0.0 0.0 0.00 0.00 0.00 98 1019.9
20260902121025 72 0 0.0 0.0 0.00 0.00 0.00 98 1019.8
20260902120527 71 0 0.0 0.0 0.00 0.00 0.00 98 1019.8
20260902120046 71 0 0.0 0.0 0.00 0.00 0.00 97 1019.8
20260902115524 71 0 0.0 0.0 0.00 0.00 0.00 97 1019.8
20260902115029 71 0 0.0 0.0 0.00 0.00 0.00 97 1019.7
20260902114543 71 0 0.0 0.0 0.00 0.00 0.00 97 1019.6
20260902114027 71 0 0.0 0.0 0.00 0.00 0.00 97 1019.6
20260902113523 71 0 0.0 0.0 0.00 0.00 0.00 97 1019.5
20260902113050 71 0 0.0 0.0 0.00 0.00 0.00 97 1019.4
20260902112524 71 0 0.0 0.0 0.00 0.00 0.00 97 1019.4
20260902112025 71 0 0.0 0.0 0.00 0.00 0.00 97 1019.4
20260902111552 71 0 0.0 0.0 0.00 0.00 0.00 97 1019.3
20260902111025 71 0 0.0 0.0 0.00 0.00 0.00 97 1019.2
20260902110527 71 0 0.0 0.0 0.00 0.00 0.00 97 1019.2
20260902110044 71 0 0.0 0.0 0.00 0.00 0.00 97 1019.3
20260902105526 71 0 0.0 0.0 0.00 0.00 0.00 97 1019.2
20260902105024 71 0 0.0 0.0 0.00 0.00 0.00 97 1019.3
20260902104545 71 0 0.0 0.0 0.00 0.00 0.00 97 1019.4
20260902104026 71 0 0.0 0.0 0.00 0.00 0.00 97 1019.4
20260902103527 71 0 0.0 0.0 0.00 0.00 0.00 96 1019.3
20260902103045 71 0 0.0 0.0 0.00 0.00 0.00 96 1019.2
20260902102525 71 0 0.0 0.0 0.00 0.00 0.00 96 1019.3
20260902102026 71 0 0.0 0.0 0.00 0.00 0.00 96 1019.3
20260902101554 71 0 0.0 0.0 0.00 0.00 0.00 96 1019.3
20260902101026 71 0 0.0 0.0 0.00 0.00 0.00 96 1019.3
20260902100527 71 0 0.0 0.0 0.00 0.00 0.00 96 1019.3
20260902100045 71 0 0.0 0.0 0.00 0.00 0.00 97 1019.3
20260902095522 71 0 0.0 0.0 0.00 0.00 0.00 96 1019.3
20260902095023 71 0 0.0 0.0 0.00 0.00 0.00 96 1019.2
20260902094550 71 0 0.0 0.0 0.00 0.00 0.00 96 1019.2
20260902094024 71 0 0.0 0.0 0.00 0.00 0.00 96 1019.2
20260902093524 71 0 0.0 0.0 0.00 0.00 0.00 96 1019.3
20260902093045 71 0 0.0 0.0 0.00 0.00 0.00 96 1019.3
20260902092524 71 0 0.0 0.0 0.00 0.00 0.00 97 1019.3
20260902092025 71 0 0.0 0.0 0.00 0.00 0.00 97 1019.2
20260902091550 71 0 0.0 0.0 0.00 0.00 0.00 96 1019.1
20260902091031 71 0 0.0 0.0 0.00 0.00 0.00 96 1019.1
20260902090524 71 0 0.0 0.0 0.00 0.00 0.00 96 1019.0
20260902090043 71 0 0.0 0.0 0.00 0.00 0.00 96 1019.1
20260902085525 71 0 0.0 0.0 0.00 0.00 0.00 96 1018.8
20260902085025 72 0 0.0 0.0 0.00 0.00 0.00 96 1018.9
20260902084552 72 0 0.0 0.0 0.00 0.00 0.00 96 1018.7
20260902084025 72 0 0.0 0.0 0.00 0.00 0.00 96 1018.9
20260902083524 72 0 0.0 0.0 0.00 0.00 0.00 95 1018.6
20260902083043 72 0 0.0 0.0 0.00 0.00 0.00 95 1018.5
20260902082523 72 0 0.0 0.0 0.00 0.00 0.00 96 1018.6
20260902082024 72 0 0.0 0.0 0.00 0.00 0.00 96 1018.5
20260902081549 72 0 0.0 0.0 0.00 0.00 0.00 96 1018.6
20260902081023 72 0 0.0 0.0 0.00 0.00 0.00 95 1018.4
20260902080523 72 0 0.0 0.0 0.00 0.00 0.00 95 1018.4
20260902080044 72 0 0.0 0.0 0.00 0.00 0.00 95 1018.3
20260902075525 72 0 0.0 0.0 0.00 0.00 0.00 95 1018.4
20260902075024 72 0 0.0 0.0 0.00 0.00 0.00 95 1018.3
20260902074545 72 0 0.0 0.0 0.00 0.00 0.00 95 1018.3
20260902074025 72 0 0.0 0.0 0.00 0.00 0.00 95 1018.3
20260902073527 72 0 0.0 0.0 0.00 0.00 0.00 95 1018.4
20260902073044 72 0 0.0 0.0 0.00 0.00 0.00 95 1018.4
20260902072524 72 0 0.0 0.0 0.00 0.00 0.00 95 1018.5
20260902072031 72 0 0.0 0.0 0.00 0.00 0.00 95 1018.3
20260902071542 72 0 0.0 0.0 0.00 0.00 0.00 95 1018.3
20260902071032 73 0 0.0 0.0 0.00 0.00 0.00 95 1018.4
20260902070522 73 0 0.0 0.0 0.00 0.00 0.00 95 1018.4
20260902070056 73 0 0.0 0.0 0.00 0.00 0.00 95 1018.4
20260902065528 73 0 0.0 0.0 0.00 0.00 0.00 94 1018.4
20260902065024 73 0 0.0 0.0 0.00 0.00 0.00 94 1018.4
20260902064555 73 0 0.0 0.0 0.00 0.00 0.00 94 1018.3
20260902064024 73 0 0.0 0.0 0.00 0.00 0.00 94 1018.3
20260902063529 73 0 0.0 0.0 0.00 0.00 0.00 94 1018.3
20260902063047 73 0 0.0 0.0 0.00 0.00 0.00 94 1018.2
20260902062523 73 0 0.0 0.0 0.00 0.00 0.00 93 1018.3
20260902062027 74 0 0.0 0.0 0.00 0.00 0.00 93 1018.3
20260902061556 74 0 0.0 0.0 0.00 0.00 0.00 93 1018.4
20260902061026 74 0 0.0 0.0 0.00 0.00 0.00 93 1018.4
20260902060523 74 0 0.0 0.0 0.00 0.00 0.00 93 1018.5
20260902060047 74 0 0.0 0.0 0.00 0.00 0.00 93 1018.5
20260902055527 74 0 0.0 0.0 0.00 0.00 0.00 93 1018.4
20260902055024 74 0 0.0 0.0 0.00 0.00 0.00 92 1018.5
20260902054547 74 0 0.0 0.0 0.00 0.00 0.00 92 1018.5
20260902054026 74 0 0.0 0.0 0.00 0.00 0.00 92 1018.6
20260902053524 74 0 0.0 0.0 0.00 0.00 0.00 92 1018.4
20260902053048 75 0 0.0 0.0 0.00 0.00 0.00 92 1018.5
20260902052528 75 0 0.0 0.0 0.00 0.00 0.00 92 1018.5
20260902052024 75 0 0.0 0.0 0.00 0.00 0.00 92 1018.5
20260902051553 75 0 0.0 0.0 0.00 0.00 0.00 92 1018.6
20260902051024 75 0 0.0 0.0 0.00 0.00 0.00 92 1018.5
20260902050525 75 0 0.0 0.0 0.00 0.00 0.00 92 1018.5
20260902050053 75 0 0.0 0.0 0.00 0.00 0.00 92 1018.5
20260902045524 75 0 0.0 0.0 0.00 0.00 0.00 92 1018.6
20260902045024 75 0 0.0 0.0 0.00 0.00 0.00 91 1018.4
20260902044542 75 0 0.0 0.0 0.00 0.00 0.00 92 1018.4
20260902044024 75 0 0.0 0.0 0.00 0.00 0.00 91 1018.5
20260902043525 76 0 0.0 0.0 0.00 0.00 0.00 91 1018.4
20260902043051 76 0 0.0 0.0 0.00 0.00 0.00 91 1018.4
20260902042525 76 0 0.0 0.0 0.00 0.00 0.00 90 1018.5
20260902042024 76 0 0.0 0.0 0.00 0.00 0.00 90 1018.6
20260902041557 76 0 0.0 0.0 0.00 0.00 0.00 89 1018.6
20260902041023 76 0 0.0 0.0 0.00 0.00 0.00 89 1018.6
20260902040526 76 0 0.0 0.0 0.00 0.00 0.00 89 1018.6
20260902040045 76 0 0.0 0.0 0.00 0.00 0.00 89 1018.5
20260902035535 77 0 0.0 0.0 0.00 0.00 0.00 89 1018.5
20260902035023 77 0 0.0 0.0 0.00 0.00 0.00 89 1018.6
20260902034548 77 0 0.0 0.0 0.00 0.00 0.00 89 1018.5
20260902034028 77 0 0.0 0.0 0.00 0.00 0.00 88 1018.6
20260902033524 78 0 0.0 0.0 0.00 0.00 0.00 88 1018.5
20260902033057 78 0 0.0 0.0 0.00 0.00 0.00 87 1018.6
20260902032528 78 0 0.0 0.0 0.00 0.00 0.00 86 1018.6
20260902032026 78 0 0.0 0.0 0.00 0.00 0.00 85 1018.4
20260902031546 79 0 0.0 0.0 0.00 0.00 0.00 85 1018.4
20260902031024 79 0 0.0 0.0 0.00 0.00 0.00 84 1018.4
20260902030522 79 0 0.0 0.0 0.00 0.00 0.00 84 1018.4
20260902030044 79 0 0.0 0.0 0.00 0.00 0.00 84 1018.4
20260902025524 79 0 0.0 0.0 0.00 0.00 0.00 84 1018.3
20260902025028 79 0 0.0 0.0 0.00 0.00 0.00 84 1018.4
20260902024547 79 0 0.0 0.0 0.00 0.00 0.00 84 1018.4
20260902024025 79 0 0.0 0.0 0.00 0.00 0.00 82 1018.4
20260902023523 79 0 0.0 0.0 0.00 0.00 0.00 82 1018.3
20260902023044 79 0 0.0 0.0 0.00 0.00 0.00 82 1018.3
20260902022523 79 0 0.0 0.0 0.00 0.00 0.00 82 1018.3
20260902022024 79 0 0.0 0.0 0.00 0.00 0.00 82 1018.4
20260902021604 79 0 0.0 0.0 0.00 0.00 0.00 82 1018.3
20260902021024 80 0 0.0 0.0 0.00 0.00 0.00 83 1018.3
20260902020527 80 0 0.0 0.0 0.00 0.00 0.00 83 1018.3
20260902020050 80 0 0.0 0.0 0.00 0.00 0.00 83 1018.3
20260902015524 81 0 0.0 0.0 0.00 0.00 0.00 83 1018.3
20260902015025 81 0 0.0 0.0 0.00 0.00 0.00 83 1018.3
20260902014544 81 0 0.0 0.0 0.00 0.00 0.00 82 1018.3
20260902014028 81 0 0.0 0.0 0.00 0.00 0.00 81 1018.3
20260902013526 81 0 0.0 0.0 0.00 0.00 0.00 79 1018.3
20260902013043 81 0 0.0 0.0 0.00 0.00 0.00 79 1018.3
20260902012524 82 0 0.0 0.0 0.00 0.00 0.00 80 1018.3
20260902012026 82 0 0.0 0.0 0.00 0.00 0.00 79 1018.1
20260902011543 82 0 0.0 0.0 0.00 0.00 0.00 79 1018.1
20260902011024 82 0 0.0 0.0 0.00 0.00 0.00 79 1018.1
20260902010524 82 0 0.0 0.0 0.00 0.00 0.00 79 1018.0
20260902010058 82 0 0.0 0.0 0.00 0.00 0.00 78 1017.9
20260902005525 83 0 0.0 0.0 0.00 0.00 0.00 79 1017.9
20260902005024 83 0 0.0 0.0 0.00 0.00 0.00 78 1017.9
20260902004547 83 0 0.0 0.0 0.00 0.00 0.00 77 1017.9
20260902004024 83 0 0.0 0.0 0.00 0.00 0.00 77 1017.8
20260902003527 84 0 0.0 0.0 0.00 0.00 0.00 77 1017.9
20260902003045 85 0 0.0 0.0 0.00 0.00 0.00 76 1017.9
20260902002524 85 0 0.0 0.0 0.00 0.00 0.00 74 1017.9
20260902002028 86 0 0.0 0.0 0.00 0.00 0.00 73 1017.9
20260902001547 86 0 0.0 0.0 0.00 0.00 0.00 72 1018.0
20260902001023 87 0 0.0 0.0 0.00 0.00 0.00 70 1018.0
20260902000525 87 0 0.0 0.0 0.00 0.00 0.00 70 1018.0
20260902000053 88 0 0.0 0.0 0.00 0.00 0.00 69 1018.0
20260901235525 88 0 0.0 0.0 0.00 0.00 0.00 68 1018.0
20260901235026 88 0 0.0 0.0 0.00 0.00 0.00 67 1018.0
20260901234606 88 0 0.0 0.0 0.00 0.00 0.00 67 1018.1
20260901234024 89 0 0.0 0.0 0.00 0.00 0.00 66 1018.1
20260901233524 89 0 0.0 0.0 0.00 0.00 0.00 66 1018.0
20260901233048 89 0 0.0 0.0 0.00 0.00 0.00 65 1018.2
20260901232524 89 0 0.0 1.0 0.00 0.00 0.00 64 1018.2
20260901232027 90 0 0.0 1.0 0.00 0.00 0.00 64 1018.1
20260901231550 90 0 0.0 6.0 0.00 0.00 0.00 63 1018.1
20260901231026 90 0 0.0 6.0 0.00 0.00 0.00 63 1018.2
20260901230529 90 237 1.0 6.0 0.00 0.00 0.00 61 1018.2
20260901230120 90 187 0.0 3.0 0.00 0.00 0.00 61 1018.2
20260901225525 90 0 0.0 3.0 0.00 0.00 0.00 62 1018.1
20260901225025 90 0 0.0 3.0 0.00 0.00 0.00 61 1018.1
20260901224542 90 200 0.0 2.0 0.00 0.00 0.00 63 1018.1
20260901224029 91 220 0.0 3.0 0.00 0.00 0.00 63 1018.0
20260901223525 91 223 0.0 3.0 0.00 0.00 0.00 63 1018.1
20260901223105 91 145 1.0 3.0 0.00 0.00 0.00 61 1018.0
20260901222524 92 0 0.0 4.0 0.00 0.00 0.00 59 1018.0
20260901222026 92 175 0.0 4.0 0.00 0.00 0.00 59 1018.0
20260901221543 92 0 0.0 4.0 0.00 0.00 0.00 58 1018.1
20260901221024 92 200 1.0 4.0 0.00 0.00 0.00 60 1018.0
20260901220526 93 198 1.0 4.0 0.00 0.00 0.00 59 1017.9
20260901220051 93 198 1.0 5.0 0.00 0.00 0.00 57 1018.0
20260901215525 94 0 0.0 6.0 0.00 0.00 0.00 59 1018.0
20260901215027 94 0 1.0 6.0 0.00 0.00 0.00 55 1018.0
20260901214545 94 229 1.0 6.0 0.00 0.00 0.00 56 1018.0
20260901214027 95 0 1.0 4.0 0.00 0.00 0.00 59 1017.8
20260901213524 95 254 1.0 4.0 0.00 0.00 0.00 55 1018.0
20260901213048 94 0 1.0 5.0 0.00 0.00 0.00 55 1018.0
20260901212524 95 209 0.0 5.0 0.00 0.00 0.00 58 1017.9
20260901212029 94 256 2.0 8.0 0.00 0.00 0.00 55 1018.0
20260901211551 94 182 1.0 8.0 0.00 0.00 0.00 56 1018.0
20260901211023 94 209 2.0 8.0 0.00 0.00 0.00 55 1018.0
20260901210529 94 167 1.0 7.0 0.00 0.00 0.00 56 1018.0
20260901210052 95 155 1.0 7.0 0.00 0.00 0.00 58 1018.0
20260901205525 95 194 3.0 7.0 0.00 0.00 0.00 55 1018.1
20260901205025 95 159 1.0 7.0 0.00 0.00 0.00 57 1018.2
20260901204546 95 196 1.0 7.0 0.00 0.00 0.00 57 1018.2
20260901204026 95 0 2.0 7.0 0.00 0.00 0.00 57 1018.2